This is the latest recevied weather packets stored in our database for station/object JO1YDG-13. If no packets are shown the sender has not sent any weather packets the latest 10 day(s).
| Time | Temp. | Humidity | Pressure | Rain* | Wind** | Luminosity | Snow |
|---|---|---|---|---|---|---|---|
| 1777531268 | 15.56° C | 81% | 990.5 hPa | 0 mm | - | - | - |
| 1777530968 | 15.56° C | 81% | 990.5 hPa | 0 mm | - | - | - |
| 1777530667 | 15.56° C | 80% | 990.5 hPa | 0 mm | - | - | - |
| 1777530367 | 15.56° C | 79% | 990.6 hPa | 0 mm | - | - | - |
| 1777530067 | 16.11° C | 78% | 990.6 hPa | 0 mm | - | - | - |
| 1777529767 | 16.11° C | 77% | 990.6 hPa | 0 mm | - | - | - |
| 1777529466 | 16.11° C | 76% | 990.6 hPa | 0 mm | - | - | - |
| 1777529166 | 16.11° C | 75% | 990.6 hPa | 0 mm | - | - | - |
| 1777528868 | 16.11° C | 75% | 990.6 hPa | 0 mm | - | - | - |
| 1777528568 | 16.67° C | 74% | 990.6 hPa | 0 mm | - | - | - |
| 1777528267 | 16.11° C | 74% | 990.6 hPa | 0 mm | - | - | - |
| 1777527966 | 16.67° C | 74% | 990.8 hPa | 0 mm | - | - | - |
| 1777527668 | 16.67° C | 74% | 990.8 hPa | 0 mm | - | - | - |
| 1777527368 | 16.67° C | 72% | 990.9 hPa | 0 mm | - | - | - |
| 1777527067 | 16.67° C | 73% | 990.9 hPa | 0 mm | - | - | - |
| 1777526767 | 16.67° C | 72% | 990.8 hPa | 0 mm | - | - | - |
| 1777526467 | 16.67° C | 71% | 990.8 hPa | 0 mm | - | - | - |
| 1777526166 | 17.22° C | 71% | 990.8 hPa | 0 mm | - | - | - |
| 1777525866 | 16.67° C | 72% | 990.8 hPa | 0 mm | - | - | - |
| 1777525566 | 17.22° C | 71% | 990.8 hPa | 0 mm | - | - | - |
| 1777525268 | 17.22° C | 70% | 990.9 hPa | 0 mm | - | - | - |
| 1777524968 | 17.22° C | 71% | 990.9 hPa | 0 mm | - | - | - |
| 1777524668 | 17.22° C | 68% | 990.9 hPa | 0 mm | - | - | - |
| 1777524367 | 17.22° C | 70% | 991 hPa | 0 mm | - | - | - |
| 1777524066 | 17.22° C | 69% | 991 hPa | 0 mm | - | - | - |
* Rain latest hour (hover to see other rain measurements)
** Current wind speed in m/s (hover to see current wind gust speed)